Simultaneous Nadir Overpasses (SNOs) Predictions

Prediction of SNOs between GOES-15 and NOAA-19 Satellite Orbit:

Table of predicted SNOs for the next 14.0 days since TLE Epoch: 7/25/2025
Index Date Time (GOES-15) GOES-15 Lat,Lon NOAA-19 Lat,Lon Distance(km) Time Diff (sec)
1 07/26/2025 05:53:36 0.08, 61.33 0.39, 60.01 150.42 80
2 07/27/2025 05:38:18 0.05, 61.34 -0.36, 63.08 198.56 80
3 07/29/2025 17:59:29 -0.11, 61.44 -0.73, 58.66 316.80 80
4 07/30/2025 17:44:10 -0.09, 61.45 -0.04, 61.74 32.19 80
5 07/31/2025 17:31:31 -0.07, 61.47 0.70, 64.80 381.05 80
6 08/02/2025 06:05:21 0.16, 61.40 1.08, 57.32 464.89 80
7 08/03/2025 05:52:41 0.14, 61.42 0.37, 60.40 116.31 80
8 08/04/2025 05:37:22 0.12, 61.43 -0.34, 63.47 231.98 80
9 08/06/2025 17:58:35 -0.18, 61.57 -0.77, 59.05 286.92 80
10 08/07/2025 17:43:16 -0.16, 61.59 -0.01, 62.11 60.95 80
